RH
6 6 7 8 9 10 10 11 11 12 13 15 17 18 18 19 22 28 34 38 43 49 55 60 65 70 76 84 92 100 107 107 97 80 62 47 39 36 36 37 39 44 47 48 50 51 52 54 52 51 52 51 50 51 52 51 52 53 52 52 52 51 50 50 50 52 52 51 48 46 46 45 44 43 42 42 44 46 46 44 42 41 40 39 35 33 36
6 7 8 10 11 11 12 13 15 16 19 22 24 25 27 29 33 39 44 49 56 61 66 70 73 77 83 90 94 95 91 79 61 47 39 36 35 35 36 37 41 45 47 50 52 51 52 55 54 53 53 52 52 53 54 54 55 54 54 53 51 50 49 48 47 48 49 50 49 47 48 48 47 46 45 44 45 48 49 47 43 40 38 39 35 31 37
7 9 10 11 13 15 16 18 20 22 26 29 31 34 37 41 45 49 52 56 60 62 64 66 70 72 74 74 71 65 56 46 38 35 35 34 34 34 36 39 42 46 48 50 51 51 52 54 55 55 54 54 55 55 56 56 55 54 54 52 50 49 49 46 44 44 45 46 46 45 46 46 46 47 46 46 47 50 51 48 43 38 35 35 34 37 54
10 12 14 15 17 19 20 22 24 27 31 33 36 40 42 43 45 47 51 53 55 55 56 58 58 57 55 51 47 41 36 34 33 33 33 33 33 34 36 40 43 46 48 49 50 51 52 53 54 55 56 57 57 57 57 56 55 55 53 50 48 48 47 46 45 45 45 45 45 43 44 46 47 49 48 47 48 50 49 45 40 35 32 37 48 62 75
14 16 18 20 21 21 22 24 27 31 33 33 35 38 40 41 44 46 48 50 50 50 50 49 47 42 38 35 33 31 32 32 33 33 33 33 33 35 37 40 43 45 46 48 50 50 51 52 54 54 55 56 56 56 56 54 54 52 50 48 46 45 47 47 46 47 47 46 46 45 46 48 51 52 51 48 47 46 44 40 37 37 42 56 74 86 85
19 21 22 22 22 22 23 26 28 29 30 31 34 37 39 42 44 45 45 46 46 43 41 38 35 31 29 28 29 31 32 34 33 33 32 33 34 36 38 40 42 44 46 46 48 49 50 51 51 52 53 53 52 53 52 52 51 49 47 46 44 44 46 47 47 49 50 48 47 48 49 50 53 54 48 44 42 42 42 42 46 55 68 82 91 91 83
22 22 21 21 21 22 24 26 28 29 31 34 36 38 40 41 42 42 41 40 38 34 30 28 26 26 26 28 30 32 33 34 34 33 33 33 35 36 39 41 42 44 44 45 46 48 48 49 49 49 49 49 49 50 49 49 48 46 46 45 45 45 46 47 48 49 53 52 49 49 50 50 52 50 45 44 46 50 53 60 70 80 88 94 90 80 74
21 19 19 21 22 24 27 29 30 32 35 37 38 38 39 40 39 38 35 33 30 26 24 23 23 25 27 29 32 33 34 35 34 33 34 34 35 36 38 40 41 42 43 44 45 45 46 47 48 48 49 48 48 47 47 47 46 46 46 46 46 46 46 48 47 48 55 56 49 48 48 47 50 53 54 58 63 68 75 84 93 94 89 87 78 63 56
19 19 21 24 26 28 30 31 33 35 37 37 36 36 35 34 32 30 28 26 24 22 21 22 24 26 29 31 33 34 35 35 34 34 34 35 36 37 38 39 40 41 42 42 44 44 44 45 45 46 46 46 46 46 47 47 47 47 47 47 48 48 48 48 44 43 49 49 45 47 49 57 68 72 72 76 81 87 93 101 106 96 79 72 64 49 40
21 23 25 27 29 31 32 32 33 34 34 33 32 30 28 26 25 23 23 22 20 21 21 22 25 28 31 33 35 36 36 36 36 36 36 36 37 37 38 39 40 40 40 41 42 42 42 43 43 44 45 45 46 46 47 48 48 49 49 49 49 47 45 43 41 41 45 47 50 57 67 83 90 84 81 87 97 101 102 106 108 92 71 61 51 39 43
24 26 28 29 30 30 30 30 30 28 28 26 25 24 21 21 21 20 20 20 20 20 22 23 26 29 32 35 37 37 38 37 36 37 37 37 38 38 39 39 39 40 40 40 40 41 42 42 43 44 45 46 47 48 49 50 50 49 47 45 44 43 43 44 47 49 53 58 63 72 87 97 92 83 86 97 107 106 100 105 106 84 59 49 43 48 66
26 27 28 27 27 27 25 24 22 21 21 20 19 20 18 18 19 19 19 20 20 20 23 25 27 30 33 36 38 38 39 38 38 38 38 39 39 39 39 39 40 40 40 41 41 42 43 43 44 47 48 48 50 50 50 49 47 44 43 43 45 46 47 48 49 50 53 57 61 69 81 86 80 77 86 98 104 94 83 91 94 69 45 44 53 71 83
25 25 25 24 23 21 20 19 18 17 17 17 17 17 17 17 18 18 18 19 20 22 23 25 28 31 34 36 38 39 40 40 40 39 39 40 40 40 41 40 41 41 41 42 43 43 45 46 47 48 48 47 46 45 45 44 45 46 47 47 47 47 48 49 49 49 49 50 53 57 63 66 65 68 78 87 86 70 54 60 65 53 48 58 69 76 74
23 22 21 20 19 18 17 17 17 17 17 17 17 17 17 17 18 19 19 20 21 22 23 26 29 31 33 36 38 39 40 41 41 40 40 40 40 40 40 40 41 42 42 43 44 44 44 43 43 44 43 43 44 45 47 49 49 49 49 49 50 53 56 57 55 54 54 53 53 54 56 58 60 66 73 70 57 43 36 42 52 59 66 69 66 64 64
21 20 19 19 18 18 18 18 18 18 18 18 18 19 19 19 19 20 21 21 22 23 24 26 27 28 31 33 35 37 37 37 38 38 38 38 39 40 39 40 40 40 40 40 39 40 40 41 42 44 44 45 46 48 50 52 54 57 60 64 66 67 67 64 60 59 59 58 58 60 59 57 55 58 57 46 37 37 42 50 63 71 71 64 59 62 67
21 20 20 20 19 19 19 19 19 19 20 20 20 20 21 21 22 22 23 23 24 24 25 27 28 28 30 31 32 33 35 35 36 37 37 36 36 36 36 35 36 37 38 39 40 42 42 42 43 44 46 49 53 59 66 72 75 77 78 77 75 71 70 68 66 65 64 62 61 57 48 40 40 43 42 39 43 49 51 56 64 67 63 60 63 69 71
21 21 20 20 20 20 20 21 21 21 22 22 23 23 24 25 25 25 25 25 26 27 28 29 29 30 31 32 33 34 34 34 34 34 34 34 34 36 37 37 39 40 40 41 41 42 44 47 51 58 66 73 81 87 89 87 83 79 77 76 76 76 76 74 69 63 57 51 46 41 36 36 43 48 50 51 54 56 55 57 61 63 66 68 69 70 69
21 21 21 21 22 22 23 23 24 25 25 26 27 27 27 28 29 29 28 29 30 31 31 31 32 33 33 33 33 33 33 34 35 35 36 36 36 37 37 37 38 40 43 48 53 60 67 75 82 90 94 95 94 90 83 78 73 70 72 76 76 72 67 60 51 45 40 38 38 41 46 54 58 59 59 58 59 60 62 63 64 65 68 69 68 68 68
22 22 22 22 23 23 24 24 25 25 26 27 28 28 28 28 28 29 29 30 32 32 32 31 31 32 32 32 33 34 34 34 34 33 34 35 37 42 47 52 58 64 71 76 80 85 89 90 89 87 84 79 74 70 68 66 59 52 52 55 52 46 42 40 39 39 41 45 48 51 57 63 65 64 63 62 63 63 62 64 67 66 62 63 68 73 74
21 21 21 21 21 22 22 23 24 25 25 25 26 26 26 26 26 27 28 29 29 30 30 30 30 31 32 32 32 31 31 33 37 42 49 56 61 66 70 72 71 70 70 68 64 62 62 61 58 55 54 56 54 50 48 47 39 31 32 35 36 37 41 45 48 50 52 55 56 56 60 62 61 59 59 59 59 59 58 60 66 69 66 65 69 73 73
20 21 21 22 23 23 24 24 25 26 26 26 26 26 26 25 26 26 27 28 29 30 30 30 30 30 30 31 34 39 45 52 57 61 63 62 58 55 51 46 40 37 35 33 30 30 31 32 34 34 35 37 36 31 30 32 33 35 39 41 44 47 51 53 55 55 56 57 57 56 59 59 56 54 57 60 61 62 64 63 65 69 70 67 66 69 71
23 24 24 25 25 25 26 26 26 26 26 25 25 25 25 25 26 26 27 28 28 28 28 29 32 36 41 46 51 53 54 52 48 44 39 33 29 26 24 22 20 20 19 19 20 20 21 23 26 27 27 29 31 32 35 39 42 46 48 49 51 54 54 55 56 56 56 57 56 58 64 68 66 64 65 68 70 71 71 69 68 69 71 71 71 72 74
26 26 27 27 26 26 25 25 25 25 24 24 23 23 24 24 24 25 26 27 29 33 38 43 47 50 50 47 43 38 33 29 26 23 22 22 22 23 23 23 23 23 24 25 26 27 29 31 33 35 36 38 40 41 43 45 47 49 48 49 53 55 54 55 56 57 59 61 62 66 73 78 78 76 75 75 74 74 74 74 75 76 77 76 74 72 71
27 27 27 26 25 25 24 23 23 22 22 22 22 23 24 26 28 32 36 40 45 49 50 48 44 39 33 28 25 23 22 23 24 26 28 30 31 32 33 33 33 33 33 34 34 35 37 39 41 42 42 42 42 42 42 43 46 47 48 49 52 55 56 58 63 65 67 70 72 75 80 83 80 77 77 76 75 78 82 84 84 82 79 76 74 72 71
28 27 26 25 24 23 22 22 22 22 23 25 28 32 36 40 44 47 49 48 46 42 36 30 26 24 22 22 23 25 27 31 34 36 38 39 39 40 39 38 36 35 35 35 36 36 37 40 42 44 45 44 44 44 44 44 45 47 49 51 54 59 63 65 69 71 71 71 72 73 77 83 82 78 80 83 85 90 96 96 93 88 81 77 77 79 80
26 24 23 22 22 21 22 23 25 28 32 36 41 45 47 49 48 45 40 34 29 26 24 23 22 23 24 27 31 34 38 41 42 42 41 40 40 40 39 38 37 36 36 37 38 39 41 43 46 49 52 54 54 54 52 50 49 51 52 54 57 61 63 62 63 67 69 70 71 72 76 87 94 96 98 99 97 95 94 92 88 83 80 80 84 89 95
23 22 22 22 23 24 26 29 32 37 42 45 47 47 44 40 35 30 26 24 23 23 23 24 26 29 34 38 42 43 44 42 42 42 42 41 40 39 39 39 39 40 41 42 43 46 47 49 52 57 61 63 64 64 62 59 56 55 57 60 62 63 62 61 62 65 69 71 72 73 75 81 88 92 93 92 87 82 80 80 81 83 87 91 91 90 89
22 22 23 24 26 29 32 36 40 43 43 42 40 36 32 27 24 23 23 23 24 25 28 31 36 40 44 45 45 45 44 43 42 42 42 41 40 39 39 40 41 44 47 49 51 53 54 54 57 61 65 67 66 64 64 64 62 62 65 70 72 69 67 65 65 67 69 71 73 76 77 79 82 84 84 83 81 79 81 86 89 89 88 84 78 72 68
23 25 28 30 33 36 38 39 39 37 34 30 28 25 23 22 22 23 24 26 29 34 39 42 45 46 46 45 44 42 41 41 41 42 41 42 42 42 43 44 44 47 50 52 54 55 54 54 57 61 65 67 65 63 65 69 69 71 76 79 76 71 68 68 69 72 76 79 83 88 90 90 90 91 90 89 90 89 89 88 84 78 71 66 63 62 61
30 33 35 36 37 36 33 30 27 25 23 22 21 21 22 22 23 25 29 34 40 44 47 48 49 48 48 46 43 41 39 39 41 41 41 42 43 44 45 46 47 48 50 52 52 51 51 54 58 61 63 64 63 62 67 71 74 76 78 77 73 73 77 82 84 86 90 93 96 100 101 99 97 97 98 97 93 87 81 74 68 64 61 60 60 59 57
38 38 37 33 30 25 22 20 20 20 20 20 20 21 22 23 27 32 39 44 48 49 50 50 49 48 47 44 42 42 43 43 43 43 42 42 44 44 46 49 51 51 52 54 54 54 55 58 59 59 60 61 62 65 71 76 78 78 76 75 79 87 94 98 98 99 100 100 98 99 103 104 102 99 95 89 82 74 68 64 61 59 57 56 55 55 53
36 32 27 23 19 18 18 19 19 19 20 20 21 22 25 29 37 44 48 51 51 52 52 51 49 46 44 41 41 43 45 45 46 47 48 48 50 50 51 54 56 57 57 58 59 60 60 59 57 58 62 66 71 75 79 81 81 81 82 87 94 99 100 101 102 103 103 103 101 101 101 101 97 89 80 74 68 64 61 58 56 54 53 52 52 51 49
25 21 19 17 17 18 19 20 20 20 20 21 23 26 32 40 48 52 53 54 54 53 53 51 49 47 45 44 45 46 47 47 48 50 52 54 57 60 60 60 61 63 61 60 62 63 60 57 60 66 75 82 86 88 89 89 88 91 95 98 100 101 101 102 102 102 103 105 105 101 94 87 80 74 68 64 60 57 55 54 53 51 50 48 47 45 42
19 19 18 18 19 19 20 20 20 20 22 23 26 32 40 48 53 54 54 55 54 52 51 51 50 48 48 50 51 51 51 51 51 54 58 61 63 67 69 68 66 65 63 63 64 63 62 66 76 86 94 99 100 99 99 98 98 99 101 102 102 102 103 103 103 104 104 102 98 91 82 75 70 65 61 58 55 54 52 51 49 46 43 40 38 35 31
20 19 19 19 19 19 20 20 21 22 24 26 31 39 47 52 54 55 56 56 54 53 53 53 53 51 51 53 54 54 54 55 56 60 66 71 72 74 73 70 68 67 67 68 69 72 79 90 99 104 106 107 105 103 102 102 101 102 103 103 103 103 103 104 103 101 95 89 82 76 72 67 63 59 55 53 51 50 48 45 42 39 35 31 28 24 20
20 20 19 19 20 20 21 21 22 23 26 30 37 45 50 53 55 56 56 56 56 55 55 56 56 56 55 56 60 61 62 66 71 74 74 74 75 74 69 67 68 71 72 75 82 91 101 108 108 105 104 103 102 101 102 102 103 104 104 103 103 103 101 97 91 84 78 74 71 68 64 60 56 53 51 49 47 45 41 38 34 30 25 22 18 15 13
21 20 20 20 21 21 21 22 22 25 29 36 43 49 52 55 58 58 57 56 55 55 54 55 56 57 57 58 63 69 74 79 83 83 78 74 71 69 65 64 69 73 77 86 97 104 107 107 104 102 101 101 100 102 103 104 104 104 103 102 99 94 88 81 75 71 69 67 63 60 56 53 51 49 46 42 38 35 32 28 24 20 17 14 12 12 12
21 21 21 21 21 21 22 22 23 28 35 41 46 52 55 56 57 57 57 56 55 54 55 55 55 58 60 62 64 71 78 82 80 76 72 68 64 62 61 64 69 77 87 99 107 107 104 102 101 101 101 102 103 105 106 106 104 102 98 93 87 80 75 72 70 67 63 58 54 52 49 46 43 39 34 30 27 24 21 18 16 14 12 12 11 11 11
22 22 21 21 21 21 22 22 25 32 39 44 48 52 54 55 56 57 58 57 55 53 53 53 54 58 64 67 68 71 75 77 74 69 65 61 59 59 63 69 77 89 100 107 107 104 103 101 100 101 104 105 106 106 104 101 98 93 86 80 75 73 71 69 66 61 57 54 52 49 46 41 36 31 27 23 20 17 15 14 12 12 12 12 11 11 10
23 22 22 21 21 21 22 23 27 34 41 44 47 51 53 55 55 55 55 53 51 51 52 53 56 60 65 70 73 74 71 69 67 63 61 60 61 64 72 82 93 102 108 108 104 102 102 102 102 104 106 105 103 100 97 92 86 81 76 74 72 70 68 64 62 60 58 56 52 48 44 38 32 27 22 19 16 15 14 14 13 13 12 11 10 9 9
23 22 22 22 22 22 22 24 30 37 42 44 47 50 53 54 54 54 54 53 52 53 56 59 63 68 71 73 74 73 70 65 61 60 62 66 70 77 88 99 106 107 106 103 101 101 103 104 104 102 100 97 94 91 86 80 76 73 72 71 69 67 65 63 62 61 58 54 49 43 36 29 24 20 17 15 14 14 14 14 13 12 10 9 9 8 8
23 22 22 22 22 22 23 27 33 39 43 46 49 52 54 55 55 54 56 57 58 61 65 69 72 75 76 74 71 68 64 61 60 62 66 72 80 91 102 108 107 104 103 103 103 104 104 102 98 94 91 89 86 81 75 72 71 70 69 68 67 66 65 63 60 57 52 46 39 31 25 20 17 15 14 14 14 14 14 13 12 10 9 8 8 8 7
23 22 22 22 22 23 25 30 37 41 44 47 51 53 54 56 56 56 58 61 64 67 71 73 73 72 71 68 65 63 61 61 62 66 73 82 92 101 106 106 105 104 105 105 103 101 96 92 89 87 84 81 77 73 71 70 69 67 66 67 67 67 64 59 54 49 42 34 27 21 17 15 13 13 13 14 14 14 13 11 10 9 8 8 7 7 6
22 22 22 22 23 25 29 35 40 44 47 49 52 53 54 55 56 58 60 63 65 68 69 69 69 67 65 63 62 61 62 65 68 73 82 92 100 104 105 105 105 104 103 100 95 91 87 85 83 81 77 74 71 70 70 68 66 66 66 66 65 62 57 52 46 38 30 23 18 15 13 12 12 13 14 14 14 13 11 10 8 8 8 7 6 6 6
22 21 22 23 25 28 33 38 42 45 48 50 52 53 55 55 56 59 62 64 66 67 67 65 64 63 62 61 61 63 67 70 73 80 90 100 104 105 105 103 100 97 93 89 86 83 81 80 78 75 72 70 69 68 67 66 66 65 64 62 58 54 49 43 35 26 19 15 13 12 11 12 12 13 13 13 12 11 10 9 8 7 7 6 6 6 6
22 21 22 23 26 31 36 40 43 45 48 50 51 52 53 55 57 60 63 64 64 63 62 62 61 60 60 61 64 67 69 72 79 90 99 105 105 103 99 94 89 86 84 82 80 79 77 75 73 71 70 68 66 65 64 64 63 61 58 56 53 48 41 33 24 17 14 12 12 11 12 12 13 13 12 11 10 9 9 8 8 7 6 6 6 6 5
21 21 22 23 27 31 36 40 43 46 48 50 51 51 52 54 57 59 60 60 60 59 59 58 58 58 60 63 65 67 72 82 93 102 104 101 97 92 87 84 82 80 79 78 76 74 72 71 71 70 68 65 63 63 62 60 59 57 56 53 49 41 31 21 16 13 12 12 11 12 13 13 12 11 10 9 9 9 8 8 7 6 6 6 6 6 5
22 21 22 23 25 30 35 39 42 44 46 47 48 49 50 52 54 55 55 56 56 55 55 55 57 59 61 63 67 76 87 98 103 101 94 88 84 81 79 79 78 77 76 75 73 71 71 70 69 66 64 63 61 60 60 59 59 58 54 48 39 29 20 15 13 12 12 12 12 13 13 12 11 9 8 8 8 8 8 7 7 6 6 6 5 4 4
22 22 22 23 25 28 32 35 38 41 43 44 45 47 48 49 50 51 51 52 51 51 53 54 56 59 64 72 83 95 101 100 93 86 80 76 75 74 74 76 77 76 75 74 72 71 70 67 64 62 62 62 60 60 61 61 59 55 48 39 29 20 15 13 12 12 12 13 13 13 11 10 9 8 7 7 7 7 7 7 6 5 5 5 5 4 4
23 23 23 24 25 27 29 32 35 37 39 40 42 43 44 45 46 46 47 47 48 50 52 55 60 69 81 92 98 98 92 84 78 74 72 71 71 72 74 75 75 73 72 72 71 70 67 63 62 62 62 62 62 61 60 58 54 47 38 29 21 16 13 12 12 13 14 14 13 11 10 9 8 8 7 7 7 6 6 5 5 5 6 6 5 4 4
25 24 24 25 26 27 28 30 32 33 35 37 38 38 39 41 42 43 45 47 49 53 58 67 78 89 96 95 89 82 76 72 70 69 69 69 71 73 73 72 70 70 70 71 69 67 64 63 63 64 63 63 62 60 56 52 47 39 29 21 16 14 13 13 13 14 14 13 12 10 9 9 8 8 8 7 7 6 5 5 5 6 6 6 5 4 4
27 26 26 26 26 27 28 29 30 32 33 34 35 37 38 40 43 46 50 54 60 68 78 87 92 91 86 79 73 70 69 68 68 69 71 73 72 70 68 67 69 70 70 68 66 65 66 67 67 66 65 63 60 56 51 46 38 29 20 16 14 14 14 14 14 14 14 12 10 9 9 8 8 8 8 7 7 6 5 5 6 6 6 5 4 4 4
Wind_Speed
16 15 14 13 12 11 11 11 11 12 11 10 10 10 11 12 12 14 14 15 16 17 18 19 21 22 23 24 26 26 27 28 29 30 30 29 29 29 28 29 30 30 31 33 34 35 36 38 39 40 41 43 45 46 48 50 51 53 54 55 56 57 58 59 60 63 66 68 67 66 67 68 69 71 70 70 71 73 76 77 78 78 79 82 81 77 78
15 14 13 12 11 11 10 10 11 10 9 9 9 9 10 11 12 13 14 14 15 16 17 19 20 21 22 24 25 27 28 29 29 29 29 28 28 28 29 30 31 32 33 34 35 36 37 39 41 42 43 45 47 48 50 51 53 54 55 56 57 58 59 60 60 61 64 67 68 67 67 68 70 71 72 71 72 75 78 80 80 80 79 81 83 78 76
14 13 12 11 11 10 10 10 10 9 8 8 9 9 10 11 12 13 14 14 16 17 18 19 21 22 23 25 27 28 29 29 28 28 27 28 29 29 30 31 32 33 34 35 36 37 38 40 42 44 45 46 48 49 51 53 54 55 56 57 58 59 61 62 62 62 63 65 66 66 66 68 71 73 74 73 74 77 80 81 81 80 78 79 81 77 71
13 12 11 11 11 10 10 9 8 7 8 8 9 11 12 13 13 14 14 15 17 18 19 21 23 24 25 26 27 28 27 27 27 27 27 28 29 30 31 32 33 34 35 36 38 39 40 41 42 44 46 47 49 51 53 54 55 57 58 58 59 60 62 64 64 64 65 66 67 67 68 70 73 76 77 76 76 78 81 82 82 80 77 74 76 75 71
12 12 11 11 11 10 9 8 7 8 9 10 11 12 13 14 14 15 16 17 19 21 22 23 25 25 26 26 26 26 26 26 26 27 28 29 30 31 32 33 34 35 37 38 39 40 41 42 44 45 47 48 50 52 54 55 57 58 59 59 60 60 62 64 65 66 68 69 70 71 71 73 75 79 79 78 77 78 80 81 80 78 74 70 70 73 74
12 12 12 11 10 9 8 8 8 9 10 12 13 13 14 15 16 17 18 19 21 22 23 24 25 25 25 25 25 25 25 26 27 28 29 30 31 32 33 34 35 37 38 39 40 42 43 44 45 47 48 50 51 53 55 56 58 59 60 61 61 61 62 64 65 67 70 72 72 73 74 75 77 80 80 78 77 77 77 77 77 74 71 70 69 72 75
12 12 11 10 8 8 8 9 10 11 12 13 14 14 15 17 18 19 20 21 22 23 23 24 24 24 24 24 25 25 26 27 28 29 30 31 33 33 35 36 37 38 40 40 42 43 44 46 47 48 50 51 53 54 56 58 59 60 61 62 63 63 63 65 66 67 71 75 75 75 75 76 78 80 79 76 74 74 73 73 73 72 71 71 71 71 72
11 10 9 8 8 8 9 10 11 12 13 14 15 16 17 18 19 20 21 22 22 23 23 23 24 24 25 25 25 26 27 28 30 31 32 33 34 35 36 37 38 40 41 42 43 45 46 47 49 50 52 53 55 56 58 59 60 62 63 64 65 66 66 67 67 67 70 75 76 75 76 76 77 77 75 72 70 70 71 72 73 73 72 72 71 68 65
10 9 9 8 8 9 10 11 12 13 14 15 17 18 18 19 20 20 21 21 22 22 23 23 24 25 25 26 26 27 28 30 31 32 33 34 35 37 37 39 40 41 42 44 45 47 48 49 50 52 53 55 56 58 59 61 62 64 65 66 68 69 68 69 68 66 69 73 73 73 73 74 75 74 70 69 69 70 71 72 74 75 73 71 69 65 60
9 9 9 9 9 10 11 12 13 15 16 17 18 18 18 19 19 20 20 21 22 22 23 24 24 25 26 27 28 29 30 31 32 34 35 36 37 38 39 40 42 43 44 45 47 48 50 51 52 54 55 57 58 60 61 63 64 66 67 68 69 70 69 69 67 65 66 69 69 68 69 71 73 71 68 67 69 70 71 73 76 76 73 70 66 61 57
9 9 9 9 10 11 13 14 15 16 17 18 18 18 19 19 19 19 20 21 22 23 23 24 25 26 27 28 29 30 32 33 34 35 37 38 39 40 41 42 44 45 46 47 49 50 51 53 54 56 57 59 60 62 63 65 67 68 68 68 69 69 68 68 66 64 64 66 66 66 68 72 73 70 67 67 68 70 70 73 77 75 70 66 62 59 58
9 9 10 11 12 13 14 15 15 16 17 17 18 19 19 18 19 20 20 21 22 23 24 25 26 27 28 29 31 32 33 34 36 37 38 39 41 42 43 44 45 47 48 50 51 52 53 55 56 58 60 61 62 64 65 66 67 68 68 67 67 67 67 66 65 64 62 63 65 65 67 72 73 69 66 67 69 70 69 71 76 74 66 61 59 58 60
9 10 11 12 13 13 14 14 15 16 17 17 18 19 19 19 19 20 21 21 22 24 25 26 27 28 29 30 32 33 35 36 37 39 40 41 42 44 45 46 48 49 51 52 53 54 55 57 58 60 61 61 62 64 65 65 66 67 66 66 65 64 64 63 62 62 61 62 64 64 65 69 71 67 65 67 68 67 63 64 70 69 62 60 59 60 62
10 10 11 12 13 13 14 14 15 16 17 17 18 19 19 19 20 21 21 22 23 24 25 26 27 29 30 32 33 34 36 37 39 40 42 43 44 45 47 48 49 51 52 53 55 56 56 57 58 59 60 61 61 62 63 64 64 64 63 62 61 61 61 61 60 61 61 60 61 61 62 65 65 63 63 64 63 60 55 53 58 62 61 62 62 62 64
10 10 11 12 13 13 14 14 15 16 16 17 18 19 19 20 21 21 22 23 23 24 25 27 28 29 31 33 34 35 37 38 40 41 42 43 45 46 47 49 50 51 52 53 54 55 56 56 56 57 58 59 58 58 59 60 60 60 59 58 59 59 59 60 59 60 60 58 58 58 58 60 60 59 59 57 54 52 51 50 54 60 63 65 65 65 67
10 11 12 13 13 14 14 15 15 16 16 17 18 19 19 20 21 22 22 23 24 25 25 27 28 29 31 33 34 35 37 38 39 41 42 43 45 46 47 48 49 51 51 52 53 54 54 54 54 54 54 54 52 52 54 55 55 57 58 57 57 58 58 58 58 58 58 57 56 57 56 55 55 55 54 52 51 52 53 53 56 62 65 67 68 69 71
11 12 13 13 14 14 15 15 16 16 17 17 18 19 19 20 21 22 23 23 24 25 25 26 28 29 30 32 33 35 36 38 39 41 42 44 45 46 47 48 49 50 51 51 51 51 51 51 49 49 50 50 50 51 53 54 55 56 55 55 55 55 55 56 56 56 56 55 54 54 53 52 53 53 53 53 54 56 57 56 58 62 66 69 71 72 75
12 13 14 14 14 15 15 16 16 17 17 17 18 19 19 20 21 22 23 23 24 25 25 27 28 29 31 32 34 35 37 38 40 41 43 44 45 46 47 47 47 48 48 48 48 48 48 48 48 48 50 52 53 53 54 54 53 52 51 51 52 52 52 53 52 51 51 51 50 50 52 54 55 56 57 58 58 60 61 62 63 65 67 71 74 77 80
13 13 14 14 15 15 16 16 17 17 18 18 19 20 21 22 23 23 24 25 25 27 28 29 30 31 32 34 35 37 38 39 40 41 42 42 43 43 44 45 45 46 47 47 48 48 49 50 51 51 52 52 51 51 51 50 48 46 45 46 46 45 45 45 46 46 46 48 49 49 52 55 58 59 61 62 63 64 65 66 69 71 72 74 77 81 84
13 14 15 15 16 16 17 17 18 19 19 20 21 22 23 24 25 25 26 27 28 28 30 31 31 32 33 34 35 36 37 37 38 39 39 40 42 43 44 45 46 47 48 48 48 48 48 48 48 47 46 46 45 44 44 45 43 40 38 39 40 39 39 41 44 45 47 49 51 52 54 57 59 61 63 65 67 69 70 70 72 76 79 79 80 83 87
15 15 16 17 17 18 18 19 19 20 21 22 22 24 25 25 26 26 27 27 28 29 30 30 31 32 32 33 33 34 35 36 37 38 39 40 41 42 43 43 43 43 42 42 41 40 39 39 39 38 37 36 37 36 36 38 39 38 37 37 39 40 41 44 46 49 50 52 55 57 60 63 64 65 67 69 72 74 76 77 77 79 82 84 85 86 90
15 16 17 17 18 19 19 20 21 21 22 23 24 24 25 25 26 26 27 27 27 28 28 29 29 30 30 31 32 33 34 34 35 35 35 34 33 33 33 32 32 32 31 31 31 30 30 30 30 31 31 31 33 34 34 35 37 39 40 41 42 43 45 48 51 53 56 58 59 61 65 69 71 71 72 74 76 79 81 83 84 85 87 90 91 93 95
16 17 18 18 19 20 20 21 21 22 23 23 24 24 24 24 24 24 25 25 26 26 27 27 28 29 30 30 30 29 28 27 26 24 24 23 23 24 24 25 26 26 26 26 27 27 28 28 29 30 31 33 34 35 36 37 38 41 43 44 45 47 49 51 54 57 59 62 64 65 68 72 75 76 78 79 81 83 86 87 89 91 93 96 98 99 101
18 18 19 20 20 21 21 21 21 22 22 22 22 22 22 22 23 23 24 24 25 26 26 26 26 26 25 23 21 19 17 16 16 17 18 20 21 22 24 25 26 27 28 28 29 30 31 32 33 34 35 36 36 37 38 39 40 43 45 47 48 51 53 54 57 59 61 64 66 68 71 75 77 78 80 82 84 87 90 93 94 96 97 99 102 104 106
18 19 19 20 20 20 20 20 20 20 20 20 21 21 22 22 23 23 24 24 24 24 23 22 20 17 15 13 12 12 12 14 15 16 17 19 21 22 24 26 27 28 30 31 32 33 34 35 36 38 39 40 40 41 41 42 43 46 48 50 52 53 55 56 59 62 64 66 67 69 71 77 81 82 83 86 87 89 93 96 98 100 101 102 104 106 109
18 19 19 19 19 19 19 19 20 20 21 21 22 23 23 23 23 23 22 21 19 17 15 12 10 9 8 9 10 11 12 13 15 16 18 20 22 24 26 27 29 31 32 33 34 36 37 38 39 41 42 44 45 46 47 47 48 50 52 54 55 56 58 59 61 64 67 69 71 72 73 76 82 86 88 90 91 92 94 96 99 101 103 104 105 107 110
18 18 18 19 19 19 19 20 21 22 23 23 24 24 23 22 21 19 17 14 12 9 6 6 6 8 8 9 10 11 12 13 15 17 20 21 23 25 27 29 31 33 34 36 37 38 39 41 42 43 45 46 48 50 51 52 53 55 56 58 59 60 62 64 65 67 70 73 75 77 77 77 81 85 88 91 93 94 96 99 101 103 106 108 110 111 113
18 18 19 19 20 20 22 23 23 24 24 24 24 22 20 18 15 12 9 6 4 4 6 7 7 7 7 8 9 11 13 15 17 19 21 23 25 27 29 31 32 34 35 37 38 39 41 42 44 45 47 49 51 53 56 57 59 60 61 62 64 66 68 69 71 72 74 77 79 82 84 84 86 89 92 94 97 99 101 103 106 108 111 114 117 119 120
18 19 20 21 22 23 24 24 25 25 24 23 21 18 15 11 8 4 3 4 5 6 6 6 6 6 7 8 10 12 14 17 19 21 23 25 28 30 31 33 34 35 36 38 40 42 44 46 47 49 52 54 56 58 60 62 63 64 65 66 69 71 74 76 77 78 80 83 85 87 89 91 92 95 98 100 103 105 106 109 112 114 117 120 123 125 127
20 21 22 23 24 25 24 24 23 22 20 17 14 11 8 4 2 5 7 7 6 5 4 4 5 7 9 11 13 15 17 20 22 24 26 28 30 32 34 36 37 39 40 42 44 47 49 51 53 55 57 59 60 62 63 65 66 67 68 71 73 76 79 82 84 85 86 88 90 92 95 98 99 101 103 106 109 112 114 116 118 120 122 125 127 129 131
22 23 24 24 24 23 22 20 18 16 14 11 8 5 1 4 7 8 7 6 4 3 3 4 6 8 11 13 15 18 20 23 25 28 30 32 34 36 38 40 42 44 46 48 50 52 54 55 57 58 60 62 63 64 65 67 68 70 72 75 78 81 83 86 88 90 92 93 95 97 100 103 105 107 109 111 114 117 119 121 123 125 127 129 131 133 134
23 23 23 22 21 19 18 15 13 11 9 6 2 3 6 8 8 7 6 3 1 2 4 6 9 11 13 16 18 21 23 26 29 32 34 36 38 40 42 44 46 48 50 51 53 55 57 58 60 62 64 65 67 68 69 70 72 74 76 78 81 83 86 88 91 94 96 99 100 100 102 104 108 112 114 116 119 121 123 126 127 129 130 131 133 134 135
21 21 20 19 17 15 13 11 9 7 4 1 5 8 9 8 7 5 3 1 2 4 7 9 12 14 17 19 22 24 27 29 32 35 37 39 41 43 45 47 49 51 53 55 57 59 61 62 64 66 68 70 71 73 74 75 76 78 79 81 83 85 88 91 94 97 99 102 104 106 107 109 111 114 117 120 123 126 128 130 132 132 132 132 132 132 132
18 18 17 15 13 11 10 8 6 3 2 6 8 9 9 8 5 3 2 3 5 7 9 12 14 17 20 22 25 27 30 32 35 37 40 42 44 46 49 51 53 55 57 59 61 63 65 67 69 71 72 74 75 77 78 79 80 82 83 85 88 90 92 95 97 100 103 106 109 112 114 116 117 119 122 124 127 129 131 133 134 134 133 131 130 129 127
16 15 14 13 11 9 8 5 2 3 7 9 9 9 8 6 4 3 4 6 8 10 12 15 17 20 22 25 28 30 32 35 37 39 42 44 47 49 52 55 57 60 62 64 66 68 70 71 73 75 76 77 78 79 81 82 84 86 88 90 93 95 96 98 100 103 106 109 112 114 117 120 122 125 126 128 130 132 133 134 133 132 130 128 126 125 123
14 13 12 11 10 8 6 3 4 7 9 9 9 8 6 4 4 5 7 9 11 13 15 18 20 23 25 28 30 33 36 38 40 42 44 47 49 52 55 58 61 64 67 68 70 72 73 74 75 77 78 80 81 82 84 86 88 90 92 94 96 99 101 103 104 106 108 111 115 118 121 124 127 129 131 132 133 134 133 132 131 129 127 124 123 121 119
13 13 12 11 9 7 5 5 7 9 9 9 8 7 5 5 7 8 10 12 13 16 18 21 23 25 28 30 33 36 39 41 43 45 47 50 53 55 58 61 64 66 69 71 73 74 76 76 77 78 80 82 83 85 87 90 92 94 96 98 100 103 106 108 110 112 113 115 118 121 123 126 128 130 131 132 132 131 130 129 127 125 123 121 118 116 115
14 13 12 11 9 7 6 7 8 9 9 9 8 6 7 8 10 11 13 15 17 19 21 23 26 28 31 33 35 38 41 43 46 48 50 53 55 58 61 63 66 68 70 72 74 76 77 78 79 80 82 84 86 88 91 93 95 98 100 103 106 108 111 114 116 118 120 121 123 125 127 128 128 129 129 128 126 125 123 122 120 119 117 115 113 112 112
14 14 13 11 9 7 7 8 9 9 9 9 8 8 9 11 12 14 16 18 19 21 24 26 28 31 34 37 39 41 43 46 49 51 54 56 59 61 63 66 68 70 72 73 75 77 79 80 81 83 85 87 89 91 94 96 99 102 105 108 110 113 116 118 121 124 127 128 130 131 133 134 133 132 130 128 124 121 119 117 115 113 111 109 109 109 109
15 14 13 12 10 9 8 9 9 9 9 9 9 10 12 13 15 17 18 20 22 25 27 29 32 34 37 39 42 45 47 49 52 55 57 60 62 64 66 68 70 72 73 75 77 78 80 82 83 86 88 90 93 95 97 100 103 106 109 112 114 117 120 123 125 129 131 133 134 134 135 135 134 132 130 128 125 122 120 117 114 111 109 107 107 107 107
15 14 13 12 11 10 9 10 10 10 11 11 12 13 14 16 18 19 22 24 26 28 30 33 35 38 40 43 45 48 50 52 55 58 60 63 65 68 69 71 72 73 74 76 78 80 82 84 86 89 91 94 96 98 101 103 106 109 112 115 118 120 123 126 128 130 132 134 134 133 132 130 128 127 126 125 124 122 120 117 114 111 109 107 107 106 106
15 15 14 13 13 12 11 11 12 12 12 13 14 15 17 19 21 23 25 27 29 31 34 36 39 41 44 46 48 51 53 56 58 60 63 65 67 69 70 72 73 75 76 78 80 82 85 87 90 92 95 97 100 102 104 107 109 112 115 118 121 124 126 128 129 130 132 132 132 130 127 125 123 122 122 121 120 118 116 114 113 111 108 107 106 106 105
16 15 15 15 14 13 13 13 14 14 15 16 17 18 20 22 24 26 27 29 32 34 37 39 42 44 47 49 52 54 57 59 61 63 65 67 68 70 71 73 75 76 78 81 83 86 88 91 93 95 98 100 103 106 108 111 113 115 118 121 124 126 128 129 130 131 131 130 128 126 123 121 119 118 118 117 117 115 113 112 111 109 107 106 105 105 104
16 16 16 16 16 15 15 16 16 17 18 19 20 22 23 25 27 29 30 32 35 37 40 42 45 47 50 52 55 57 60 62 64 65 67 69 70 72 73 75 77 79 81 84 87 89 92 94 96 99 101 104 107 110 112 114 117 118 120 122 124 126 129 130 131 130 128 126 124 121 119 117 116 114 113 113 114 113 112 109 108 106 105 103 103 102 101
17 17 17 17 18 18 18 18 19 19 20 22 23 24 26 28 30 32 34 36 38 41 43 46 48 51 53 55 58 60 62 64 65 67 69 70 72 74 76 77 80 82 85 87 90 92 95 97 100 102 105 107 110 112 115 118 120 121 122 123 125 127 128 129 129 128 125 123 120 118 116 114 112 110 109 109 110 110 109 108 106 104 102 101 100 99 99
17 17 18 19 19 20 20 21 21 22 23 25 26 27 29 31 33 35 37 39 42 44 47 49 52 54 56 58 60 62 64 66 67 69 71 73 74 76 79 81 83 86 88 90 93 95 98 101 103 106 108 111 113 116 118 120 122 123 124 126 127 128 128 128 127 125 123 121 118 116 113 111 110 108 107 106 106 107 106 105 104 103 101 100 98 98 97
18 18 19 20 21 22 23 23 24 25 26 28 29 31 32 34 36 38 40 43 45 48 50 52 55 57 59 61 63 65 66 68 70 71 73 75 78 80 83 85 87 89 91 94 96 99 102 104 107 110 112 114 116 118 120 122 123 125 126 128 128 129 128 126 125 123 121 119 116 113 111 109 108 107 105 104 103 104 104 103 102 101 100 98 96 95 95
19 19 20 21 22 24 25 26 27 28 29 31 32 34 36 37 39 41 44 46 48 51 53 55 58 60 62 64 66 67 69 71 72 74 76 79 81 84 86 88 90 93 95 98 101 103 106 109 111 113 116 118 119 121 122 124 125 127 128 129 129 128 126 125 123 121 119 116 113 111 109 108 107 105 104 102 101 101 101 101 100 98 97 96 94 94 94
21 20 21 22 23 25 26 28 29 30 32 34 35 37 39 41 42 45 47 49 52 54 56 59 61 63 64 66 68 69 71 73 75 78 80 83 85 87 89 91 94 96 99 102 105 108 110 113 115 117 119 120 122 123 125 127 128 129 129 129 129 127 125 123 120 119 117 115 113 110 109 108 106 104 103 101 99 98 98 98 97 97 96 97 97 97 97
22 22 22 23 24 26 27 29 30 32 34 36 38 40 42 43 46 48 50 52 55 57 59 61 63 64 66 68 70 72 74 77 79 82 84 86 88 90 92 95 98 100 103 106 109 111 114 116 118 120 121 122 124 125 127 128 129 130 130 129 128 125 123 121 118 117 115 114 112 110 109 108 106 104 102 101 99 97 97 96 96 97 97 98 98 98 97
25 24 24 25 26 27 29 30 32 34 36 38 40 42 44 47 49 51 54 56 58 59 61 63 65 66 68 71 73 76 78 81 83 85 87 90 92 94 97 99 102 104 106 109 112 115 117 120 121 123 124 125 126 127 127 128 130 130 129 127 125 122 120 118 116 115 114 113 112 111 109 108 107 105 104 103 101 99 96 95 95 96 96 96 95 93 91
27 27 27 28 28 30 31 33 35 37 39 41 43 45 48 50 52 54 56 58 60 61 63 65 67 69 72 74 77 79 82 84 87 89 91 94 96 98 101 103 106 108 110 112 115 118 120 123 125 126 127 128 129 129 129 129 129 128 126 124 121 119 117 116 115 114 113 113 112 111 109 108 106 105 104 103 102 100 97 95 94 94 93 92 90 88 86
Wind_Direction
214 212 211 210 212 216 220 223 226 227 227 228 229 231 234 235 235 235 237 240 241 242 243 244 246 248 250 252 254 256 258 260 261 262 263 263 263 264 266 267 269 270 272 274 276 278 281 283 284 286 288 289 291 292 294 295 297 298 300 301 302 304 304 305 307 308 309 309 310 311 312 311 311 311 311 312 313 313 313 313 314 315 316 316 317 320 320
205 203 204 205 208 211 213 216 219 220 222 226 230 235 239 241 241 241 243 246 248 250 251 253 254 256 256 257 258 259 260 261 262 263 263 263 264 266 268 269 271 272 274 276 278 280 282 284 286 287 288 290 291 293 294 295 297 298 300 301 302 304 304 305 306 307 308 308 309 311 311 311 310 310 311 312 313 313 312 313 313 314 316 317 317 320 321
196 197 199 201 202 203 205 209 213 216 222 229 236 241 246 248 249 250 253 255 257 258 260 260 261 261 261 261 261 261 261 262 262 263 263 265 267 269 270 272 273 275 277 278 280 282 283 284 286 288 289 290 291 293 294 296 297 298 300 301 302 304 305 305 306 307 307 307 307 309 310 309 309 309 310 311 312 312 311 312 312 314 316 317 317 319 321
190 192 193 193 195 197 201 206 212 218 228 237 243 247 251 253 256 259 262 263 265 266 266 265 265 264 264 263 262 262 262 263 263 265 267 268 271 272 273 274 275 277 278 280 282 283 284 286 287 288 290 291 292 293 295 296 297 298 299 300 302 304 305 306 307 308 307 307 307 308 309 309 309 309 309 311 312 311 311 311 312 314 317 319 319 319 320
184 185 187 189 192 195 200 209 218 227 236 243 248 252 256 260 263 267 269 269 269 270 269 268 267 267 266 264 263 263 264 265 267 269 270 272 274 275 275 276 277 279 280 282 283 285 286 287 288 289 290 292 293 294 295 296 297 298 299 300 302 304 305 306 307 308 307 307 307 309 309 310 309 308 309 311 312 312 311 312 313 316 318 320 320 319 319
179 182 186 189 192 197 207 218 229 237 244 250 255 260 264 268 270 272 272 272 271 272 271 270 269 268 267 265 265 265 266 268 270 272 274 275 276 277 278 278 279 280 282 283 285 286 287 288 289 291 292 293 294 294 295 296 297 298 299 301 302 304 305 305 307 307 307 306 307 309 309 310 309 308 309 311 312 312 313 313 315 318 320 321 320 319 319
179 184 188 191 197 207 220 231 240 248 254 259 264 268 270 273 274 275 275 274 274 274 273 272 270 269 268 267 267 267 269 271 272 274 276 277 278 279 279 280 281 282 283 285 286 287 289 290 291 292 293 294 294 295 296 296 298 299 300 301 302 304 305 305 306 307 306 306 307 309 309 309 308 307 309 313 314 314 315 316 317 318 320 320 319 320 321
181 188 192 198 209 221 233 243 250 257 262 266 270 272 273 275 276 276 277 277 276 276 275 272 271 269 269 268 269 269 271 272 274 276 278 279 280 281 281 282 283 284 285 287 288 289 290 291 292 293 294 295 295 296 297 298 299 300 301 302 303 304 304 304 305 306 305 305 307 309 309 309 308 308 311 314 316 316 317 317 317 317 318 318 319 321 323
187 195 202 212 224 234 244 252 258 264 268 270 272 274 276 277 278 279 279 279 278 277 275 274 272 271 271 271 271 272 273 275 277 278 280 281 282 283 284 284 285 286 287 288 289 290 291 292 293 293 294 295 296 297 298 298 300 301 301 302 302 302 303 303 305 307 306 305 308 309 310 309 307 308 313 316 317 317 317 317 315 315 317 320 321 323 324
198 207 216 226 237 246 253 260 265 269 271 272 274 276 278 279 280 280 281 280 279 278 276 275 274 273 274 274 274 275 276 277 278 280 282 283 284 285 286 286 287 288 289 289 290 291 292 292 293 294 295 296 296 297 298 299 300 300 300 301 301 302 303 305 307 309 308 307 308 309 309 307 306 309 314 317 316 316 316 315 313 315 319 322 323 324 324
211 221 230 239 247 254 260 264 268 270 272 274 277 279 280 282 282 283 282 281 280 279 278 277 276 275 275 276 276 277 277 278 280 281 283 284 285 286 287 288 288 289 290 290 291 291 292 293 294 295 295 296 297 298 298 298 299 299 299 301 302 303 305 307 309 310 309 308 308 309 308 305 305 310 315 315 314 314 314 313 313 316 321 322 323 324 324
226 234 242 249 256 260 264 267 270 273 275 277 280 282 284 285 286 286 285 282 282 281 280 278 278 278 278 278 278 279 279 280 282 283 284 285 286 287 288 288 289 289 290 291 291 292 293 294 295 295 296 296 297 297 297 298 298 299 301 303 304 306 307 309 310 311 310 309 309 308 307 305 306 311 314 313 312 313 316 316 314 317 321 321 322 323 322
238 246 253 258 261 265 269 273 277 279 281 283 285 287 288 290 289 288 287 285 284 283 281 281 281 281 281 280 280 281 282 283 284 285 285 286 286 287 288 289 289 290 291 291 292 293 293 294 294 294 295 296 297 297 298 299 301 302 303 305 307 308 310 311 312 312 312 311 309 309 308 306 307 312 314 312 312 315 320 320 317 317 319 320 321 321 320
250 257 262 266 270 274 278 282 284 287 289 290 291 292 293 294 293 291 290 288 286 284 284 283 283 282 282 282 282 283 283 284 285 285 286 287 288 289 290 290 290 291 291 292 292 292 293 293 294 295 296 298 299 301 301 302 303 304 306 308 310 312 313 314 314 314 312 312 310 310 309 307 309 312 312 312 315 319 323 323 317 315 317 318 319 320 320
263 269 273 277 279 281 285 288 290 292 294 295 296 296 296 297 296 294 293 291 289 288 287 286 286 286 286 285 285 286 286 287 288 288 289 290 290 290 290 290 290 290 291 291 292 294 295 296 298 299 299 301 302 303 303 304 305 307 309 312 314 314 315 315 315 313 312 312 311 310 310 309 311 314 313 315 320 322 323 322 317 315 316 317 319 320 319
273 276 278 280 282 284 287 289 292 294 297 298 299 298 298 298 298 296 295 294 293 293 292 291 291 291 291 290 290 290 290 290 290 290 290 289 289 289 290 291 292 293 294 296 297 298 299 300 301 302 302 303 305 305 306 306 307 309 311 313 314 314 315 315 313 312 311 312 313 312 314 316 317 318 318 320 323 322 321 321 318 316 316 317 318 319 317
274 277 280 283 286 288 291 294 297 299 301 302 302 301 300 300 298 296 296 295 295 294 294 293 292 291 290 289 288 288 288 288 288 289 290 291 292 294 295 297 298 298 299 300 301 301 302 303 304 305 305 305 307 307 306 306 308 309 311 313 313 313 314 313 312 312 313 315 317 318 321 323 322 320 321 322 322 321 321 321 319 317 316 316 317 317 316
279 283 287 290 293 296 298 301 302 303 303 303 301 299 297 295 294 293 293 293 292 291 290 288 287 287 287 287 287 288 290 291 293 295 296 298 299 300 300 301 301 302 303 303 303 304 304 304 305 305 304 305 306 306 306 306 308 310 311 312 312 313 313 313 315 318 320 321 323 325 325 324 321 321 321 322 322 321 320 320 319 317 317 317 317 317 317
286 289 292 294 296 298 300 300 300 299 298 297 295 293 292 291 290 290 291 291 290 289 289 290 290 291 292 293 294 296 297 299 300 302 302 303 303 304 304 304 303 303 303 303 302 302 302 302 303 303 303 305 305 306 307 308 311 314 316 316 316 318 321 322 323 324 324 324 325 326 324 321 320 321 321 321 321 320 320 320 319 318 318 319 319 318 318
288 291 293 295 296 297 298 297 297 296 294 293 292 291 291 291 291 292 292 293 293 293 294 296 297 298 299 301 302 303 304 305 306 306 306 306 306 305 304 303 303 302 302 302 302 303 303 303 304 305 307 308 309 311 314 315 319 327 329 327 326 328 329 327 325 325 324 323 323 323 321 319 319 320 321 320 320 320 320 321 320 319 319 319 319 317 316
292 294 295 296 297 297 297 296 295 294 293 293 292 292 293 294 295 296 297 297 298 299 300 302 303 304 305 306 307 308 308 308 307 307 307 306 306 305 305 305 305 306 306 306 307 308 309 310 311 313 315 316 319 326 330 329 331 335 336 333 331 330 329 326 324 324 323 323 323 323 321 319 320 321 321 321 320 320 321 321 320 319 318 318 318 317 317
293 294 294 295 294 294 294 294 294 293 294 294 294 295 297 298 299 300 300 301 302 303 305 307 308 308 309 309 309 309 309 309 309 310 310 312 314 316 318 320 321 322 323 323 323 324 326 327 328 329 331 333 335 339 341 339 336 335 334 333 331 329 328 327 325 325 324 324 324 324 322 320 320 321 321 321 321 320 320 320 320 319 318 318 318 318 318
290 290 291 291 292 293 294 294 294 294 295 297 298 299 300 301 301 302 303 304 306 308 310 310 311 311 311 311 311 313 314 317 320 324 329 335 341 346 348 349 350 350 349 349 348 347 347 346 343 341 341 341 341 341 340 338 336 333 332 331 330 328 328 327 326 325 324 324 324 324 322 320 320 321 321 320 320 320 319 319 319 319 319 319 319 319 319
289 291 292 293 294 295 296 296 297 297 298 300 301 301 302 302 303 304 307 308 310 312 312 313 313 314 315 317 321 327 334 343 351 357 2 4 6 5 3 1 -0 359 357 355 354 352 351 348 345 343 342 341 340 340 338 337 335 332 331 330 329 328 327 327 325 324 323 323 323 323 321 319 318 319 319 319 320 320 319 319 319 319 320 320 320 319 318
292 293 294 295 296 296 297 298 298 299 300 301 302 302 303 304 305 307 310 311 313 315 316 318 320 324 329 339 352 4 12 16 16 14 11 8 6 3 0 358 357 356 355 354 353 352 351 349 346 343 341 339 338 337 336 335 334 331 330 329 328 327 326 325 324 322 321 321 321 321 320 318 318 319 319 319 320 320 319 319 319 319 319 319 319 318 317
292 293 294 295 295 296 298 299 299 301 301 302 302 302 304 306 308 311 314 316 319 322 326 332 343 357 13 25 29 28 25 20 14 8 4 2 360 358 356 355 354 354 353 352 351 350 349 347 345 342 339 336 335 334 333 333 332 331 329 328 327 325 324 323 323 322 321 321 321 321 321 320 318 318 319 319 319 319 318 318 318 317 317 317 316 315 315
293 294 295 295 296 297 298 299 300 301 301 301 302 304 307 310 313 317 321 325 330 340 0 25 40 45 45 39 31 22 14 7 3 360 357 356 355 353 352 352 351 351 350 349 348 347 346 345 342 340 336 334 332 331 330 330 330 329 328 327 325 324 323 323 324 323 321 321 321 321 321 320 318 317 317 317 317 318 317 317 316 316 315 315 315 315 315
296 296 296 296 297 298 298 299 300 300 301 302 305 308 312 316 320 325 333 348 17 52 69 71 63 52 41 27 16 7 1 358 355 353 351 350 349 349 348 347 347 347 346 345 344 343 342 341 339 337 334 332 331 330 329 328 329 329 328 326 324 323 323 323 323 323 322 322 321 321 321 321 320 318 318 317 317 317 317 316 316 316 316 316 316 316 316
298 298 298 299 299 300 300 301 301 301 303 306 310 314 318 323 330 350 60 95 98 91 82 71 54 34 17 5 358 354 352 350 348 347 347 346 345 344 343 342 342 342 340 340 339 338 338 338 337 336 334 332 332 331 330 328 328 328 326 325 324 323 323 323 323 323 323 323 323 322 321 321 320 319 318 318 317 317 317 317 317 317 317 317 317 316 316
300 301 301 301 302 302 302 302 303 305 308 312 316 321 326 338 77 117 122 118 109 94 72 46 21 4 356 351 347 346 345 344 343 343 342 342 341 341 339 338 338 337 337 336 336 336 336 337 336 335 333 332 331 330 329 328 327 326 325 324 324 324 324 324 324 324 324 323 323 322 321 320 320 319 319 318 318 318 318 318 318 318 317 317 316 315 315
302 303 303 303 304 304 304 306 308 312 315 320 325 334 60 128 131 131 128 122 109 79 30 3 353 347 344 341 340 340 341 340 340 340 340 340 339 338 337 336 336 335 335 335 334 334 334 334 334 332 331 330 329 329 328 327 326 326 325 325 325 325 325 324 323 323 323 322 322 321 321 320 319 319 319 319 318 318 318 317 317 317 316 316 315 315 315
304 305 305 305 305 306 309 312 315 318 323 330 353 126 137 140 139 137 134 128 95 358 343 340 338 336 336 336 336 338 338 338 339 339 339 338 337 336 336 335 334 333 332 332 332 331 331 331 331 330 329 329 328 328 328 327 327 326 326 326 325 324 323 322 322 322 321 321 320 320 320 319 319 318 318 318 317 317 317 316 316 316 316 316 316 315 315
307 307 306 306 308 311 314 315 317 321 332 96 138 145 147 148 150 151 155 189 315 324 327 330 330 331 333 334 335 336 337 337 338 338 337 336 335 334 333 332 331 330 330 330 330 329 330 330 330 330 329 329 329 328 328 327 327 326 325 324 323 322 322 321 321 321 320 320 319 319 319 318 318 318 318 317 317 317 316 316 316 316 316 316 316 315 315
309 308 307 308 310 312 312 311 313 314 148 149 154 157 160 162 168 181 229 287 307 316 320 324 327 329 331 333 333 334 335 335 335 335 334 334 333 332 330 330 329 328 329 329 329 329 330 330 330 330 329 329 329 328 328 327 326 325 323 322 322 321 321 321 320 320 320 319 319 319 319 319 318 318 318 317 317 317 316 316 316 316 317 316 316 315 315
309 307 306 307 308 307 305 300 279 178 164 164 168 171 174 180 199 239 274 296 308 314 318 322 324 326 329 330 330 331 331 332 332 333 332 331 330 329 328 328 328 328 329 329 329 329 330 330 330 329 329 328 328 327 326 325 324 323 322 321 321 321 320 320 320 319 319 318 318 318 318 318 318 317 317 317 317 317 317 317 317 317 317 316 316 316 315
307 304 304 304 303 300 294 266 197 177 176 178 181 184 191 210 243 267 285 297 306 311 316 319 321 323 325 327 327 328 329 330 330 329 329 328 327 326 326 327 328 328 329 329 329 329 329 329 329 328 327 327 326 325 324 323 322 322 321 321 321 320 320 319 319 319 318 318 318 318 318 318 318 318 318 318 318 318 317 317 317 317 317 317 317 317 317
304 302 301 301 297 289 269 222 193 187 188 191 193 201 220 246 264 276 287 296 303 308 313 316 318 320 322 324 325 326 327 327 326 326 325 325 324 325 326 327 327 327 328 328 328 328 328 328 327 327 326 325 324 323 322 322 321 321 321 320 320 320 319 319 319 318 318 318 318 318 317 317 317 318 318 318 318 318 318 318 318 318 318 318 318 318 318
303 301 299 296 288 273 245 213 200 198 200 202 208 225 246 263 272 281 289 297 302 307 311 314 316 318 320 322 323 324 323 323 323 322 322 322 323 324 325 326 326 326 327 327 326 326 326 326 325 325 324 323 323 322 321 321 321 321 320 320 320 320 320 319 319 318 318 318 318 318 318 318 318 318 318 318 318 318 318 318 318 318 318 319 319 318 318
302 300 297 291 281 264 239 219 211 209 212 218 230 248 263 273 280 287 293 298 302 305 309 312 315 317 319 320 321 321 321 320 320 320 321 321 322 323 324 325 325 325 326 325 325 324 324 324 323 323 322 322 321 321 321 321 321 320 320 320 320 320 320 319 319 319 319 319 320 320 320 320 320 320 320 319 319 318 318 318 319 319 319 319 319 318 318
300 297 293 287 277 263 243 228 223 222 226 235 249 264 274 281 287 292 296 299 303 306 309 312 315 317 318 318 318 318 318 318 319 319 320 321 322 323 323 324 325 325 324 324 323 322 322 322 321 321 321 320 320 320 320 320 321 321 321 321 320 320 320 320 320 320 320 321 321 321 321 321 321 320 320 320 320 320 320 320 320 320 320 320 320 319 319
297 293 288 281 273 262 248 238 234 234 240 251 264 274 282 288 293 297 300 303 306 309 311 313 315 315 316 316 316 316 316 317 318 319 320 320 322 322 323 323 323 323 322 322 321 321 320 320 320 320 320 320 320 320 320 321 321 321 321 321 320 320 320 320 321 321 321 321 321 321 321 320 320 320 320 320 320 321 321 321 321 321 322 322 321 320 320
294 289 283 276 269 260 251 245 243 245 252 263 273 281 287 292 296 300 303 305 308 310 311 312 313 313 313 313 313 314 315 316 318 319 319 320 321 321 321 321 321 321 320 320 320 319 319 319 319 319 319 319 320 320 321 321 321 321 321 321 320 320 320 320 320 320 320 320 320 320 320 320 321 321 321 321 321 321 321 322 322 322 323 323 322 321 321
292 286 281 274 267 260 254 250 250 256 263 271 279 285 290 294 298 301 303 306 307 308 309 309 310 310 310 311 312 314 315 316 317 318 319 319 319 319 319 319 319 319 319 319 319 319 319 319 319 319 319 319 320 320 321 321 321 321 321 321 320 320 320 320 320 320 320 320 320 321 321 322 322 322 322 322 322 322 322 323 323 323 323 324 323 323 323
292 285 278 272 266 261 257 255 257 263 269 276 282 288 291 295 299 301 303 305 306 306 307 307 308 309 310 311 313 314 315 316 317 317 317 317 317 318 318 318 318 318 318 319 319 319 319 319 319 319 319 320 320 321 321 321 321 320 320 320 320 320 320 320 320 320 320 321 321 321 322 322 323 323 323 323 322 322 323 323 323 323 324 324 324 324 323
292 284 276 270 266 262 261 261 263 267 273 279 284 288 292 296 298 301 303 304 305 305 306 307 308 309 310 312 313 314 315 315 315 315 316 316 317 317 318 318 318 318 318 319 319 319 319 319 319 319 319 320 321 321 321 320 320 320 320 320 320 320 320 320 320 321 321 321 322 323 323 324 324 324 324 324 323 322 323 323 324 324 325 325 325 324 324
292 284 276 270 267 265 264 265 268 272 276 281 285 288 292 295 298 300 301 302 303 305 306 307 308 309 311 312 312 313 313 314 314 315 316 316 317 317 317 318 318 318 319 319 319 319 319 318 319 319 320 320 321 320 320 320 320 320 320 321 321 321 321 321 321 322 322 323 323 324 324 325 325 325 325 325 324 323 323 324 325 325 325 326 325 324 323
293 286 278 273 270 268 267 268 271 274 278 282 285 288 291 294 297 298 300 302 303 305 306 308 309 310 310 311 312 312 313 314 314 315 316 316 317 317 318 318 318 318 318 318 318 318 318 319 319 320 320 321 321 320 320 320 321 321 322 322 321 322 322 322 323 323 323 324 324 325 326 326 326 326 326 326 325 325 325 325 325 325 325 325 324 323 323
294 288 282 277 274 272 271 273 274 277 280 283 286 289 291 294 296 298 300 302 304 305 307 308 309 310 310 311 312 312 313 314 315 316 316 317 317 318 318 318 318 318 318 318 319 319 319 319 320 320 321 321 321 321 322 322 322 322 322 322 322 323 323 323 323 323 324 324 325 326 326 326 326 326 327 327 326 326 325 325 325 325 325 325 326 326 327
295 290 286 281 278 276 276 277 279 280 283 285 288 290 293 295 297 299 301 303 304 306 307 308 309 309 310 311 312 313 314 315 315 316 316 317 317 318 318 318 318 318 319 319 319 319 320 320 320 321 321 322 322 323 323 323 323 323 323 323 323 324 324 324 324 324 325 326 326 327 327 327 327 327 327 327 327 327 326 326 326 327 328 329 330 330 330
297 294 290 286 283 282 281 282 283 284 285 287 289 292 294 296 298 301 303 304 306 307 308 308 309 310 311 312 313 314 314 315 315 316 316 317 317 318 318 318 319 319 319 319 319 320 319 320 320 321 322 323 324 324 324 324 324 324 324 324 324 324 324 324 325 325 326 326 327 328 328 328 327 327 327 327 328 328 328 328 329 330 331 332 331 330 329
299 297 294 292 290 289 287 287 287 288 289 291 293 295 298 300 302 304 305 306 307 307 308 309 310 311 312 312 313 314 315 315 316 316 317 317 318 318 318 319 319 319 319 319 319 319 320 321 322 323 324 324 325 324 324 325 325 325 324 324 324 324 324 325 326 326 327 327 328 328 328 328 328 328 328 328 329 329 329 330 331 332 332 331 330 328 327
299 298 297 296 295 294 293 293 294 294 296 298 300 302 303 305 306 306 306 307 307 307 308 309 310 311 312 313 313 314 315 316 316 317 317 318 318 318 319 319 319 319 319 319 320 320 322 323 324 325 325 325 325 325 325 325 325 325 324 324 324 324 325 326 326 327 327 328 328 328 328 328 328 329 329 329 329 329 330 331 332 332 331 330 329 328 328